[[{"header":{"parameterUnit":"m.s-1","parameterCategory":1,"la1":30.2991,"la2":30.254,"lo1":-89.0895,"lo2":-89.0444,"dy":0.0017,"dx":0.0017,"nx":28,"ny":28,"refTime":"2024-11-28T03:00:00:Z","depth":0,"parameterNumber":2,"parameterNumberName":"U-component_of_WINDS"},"data":[0,0,0,0,0,0,0,0,0,0,0,0,0,0,0,0,0,0,0,0,0,0,0,0,0,0,0,0,0,0,0,0,0,0,0,0,0,0,0,0,0,0,0,0,0,0,0,0,0,0,0,0,0,0,0,0,0,0,-2.4263,-2.4264,0,-2.4336,-2.4337,-2.4338,-2.4255,-2.4252,-2.4249,-2.4246,-2.4321,-2.4326,-2.4331,0,0,0,0,0,0,0,0,0,0,0,0,0,-2.4051,-2.4056,-2.4263,-2.4264,-2.4265,-2.4336,-2.4337,-2.4338,-2.4256,-2.4252,-2.4248,-2.4245,-2.432,-2.4325,-2.4331,0,0,0,0,0,0,0,0,0,0,0,0,0,-2.4136,-2.4057,-2.4263,-2.4233,-2.4231,-2.4336,-2.4337,-2.4338,-2.4257,-2.4252,-2.4247,-2.4243,-2.4318,-2.4325,-2.4332,-2.4471,0,0,-2.4355,-2.4358,0,0,0,0,0,0,0,0,-2.4131,-2.4144,-2.4236,-2.4235,-2.4233,-2.4282,-2.429,-2.4383,-2.4258,-2.4247,-2.4246,-2.4241,-2.4312,-2.4319,-2.4343,-2.4475,-2.4478,-2.4355,-2.436,-2.4363,-2.4365,0,0,0,0,0,0,0,-2.4125,-2.414,-2.4292,-2.4238,-2.4236,-2.4215,-2.4222,-2.4307,-2.4305,-2.4247,-2.4242,-2.4251,-2.431,-2.4337,-2.4345,-2.4479,-2.4355,-2.4362,-2.4366,-2.4369,-2.4726,-2.4731,0,0,0,0,0,0,-2.4123,-2.4136,-2.429,-2.4294,-2.4169,-2.4222,-2.423,-2.4271,-2.4304,-2.4304,-2.4255,-2.4247,-2.4326,-2.4336,-2.4347,-2.4511,-2.4363,-2.437,-2.4374,-2.4721,-2.4727,-2.4733,0,0,0,0,0,0,-2.4119,-2.4138,-2.4287,-2.4214,-2.4231,-2.4231,-2.4278,-2.4275,-2.4301,-2.4309,-2.4309,-2.4283,-2.4323,-2.4337,-2.444,-2.4513,-2.4373,-2.438,-2.4715,-2.4723,-2.473,-2.4842,0,0,0,0,0,0,-2.4113,-2.4137,-2.419,-2.4215,-2.4235,-2.438,-2.4282,-2.428,-2.4314,-2.4304,-2.4335,-2.4336,-2.432,-2.443,-2.4448,-2.4521,-2.4385,-2.4709,-2.4719,-2.4728,-2.4832,-2.4853,-2.487,0,0,0,0,0,-2.4106,-2.4219,-2.4193,-2.4212,-2.4302,-2.4385,-2.4396,-2.4376,-2.432,-2.4374,-2.4378,-2.4335,-2.4502,-2.4441,-2.4461,-2.4537,-2.4704,-2.4716,-2.4727,-2.4824,-2.4849,-2.487,0,0,0,0,0,0,-2.4204,-2.4222,-2.4194,-2.4319,-2.4351,-2.4371,-2.4438,-2.4403,-2.4452,-2.4441,-2.4413,-2.4421,-2.4532,-2.4544,-2.4477,-2.4672,-2.4594,-2.461,-2.4661,-2.4685,-2.4703,-2.4699,-2.4392,0,0,0,0,0,-2.4239,-2.4305,-2.4318,-2.4427,-2.4444,-2.4438,-2.4473,-2.4455,-2.4487,-2.45,-2.4513,-2.4546,-2.4605,-2.4645,-2.47,-2.4832,-2.4838,-2.4894,-2.4913,-2.4929,-2.4944,-2.5013,-2.5039,-2.477,-2.477,-2.477,0,0,-2.4315,-2.4333,-2.4376,-2.4447,-2.4469,-2.4538,-2.445,-2.4527,-2.4577,-2.4512,-2.4611,-2.4621,-2.4655,-2.4774,-2.4827,-2.4788,-2.5018,-2.4943,-2.4956,-2.4962,-2.5028,-2.5053,-2.5076,-2.4778,-2.4777,-2.4775,0,0,-2.4487,-2.4507,-2.46,-2.4624,-2.4659,-2.4654,-2.4676,-2.4701,-2.4705,-2.4803,-2.4756,-2.4814,-2.4918,-2.4944,-2.4971,-2.515,-2.5112,-2.5169,-2.527,-2.5338,-2.5359,-2.5378,-2.5442,-2.5465,-2.5183,-2.5183,-2.5183,0,-2.4577,-2.4678,-2.4652,-2.4732,-2.4764,-2.4706,-2.48,-2.4824,-2.4876,-2.4899,-2.4854,-2.4981,-2.5,-2.5124,-2.5167,-2.5191,-2.5215,-2.5166,-2.5358,-2.5377,-2.5394,-2.5454,-2.5479,-2.519,-2.5189,-2.5188,-2.5188,0,-2.4786,-2.4857,-2.4927,-2.4978,-2.5017,-2.5103,-2.509,-2.5133,-2.511,-2.5109,-2.521,-2.523,-2.5288,-2.5315,-2.5294,-2.5436,-2.541,-2.5362,-2.5283,-2.5426,-2.5483,-2.5506,-2.52,-2.5197,-2.5195,-2.5193,0,0,-2.5025,-2.5058,-2.5085,-2.5106,-2.5139,-2.5193,-2.5275,-2.5332,-2.5369,-2.5405,-2.5474,-2.5561,-2.5516,-2.5547,-2.5527,-2.5587,-2.5728,-2.5532,-2.5532,-2.5568,-2.5884,-2.5921,-2.5949,-2.5701,-2.5705,-2.5709,-2.5881,0,-2.5198,-2.5342,-2.532,-2.5458,-2.5523,-2.5468,-2.5539,-2.5567,-2.5568,-2.5622,-2.5622,-2.5685,-2.5621,-2.5639,-2.5695,-2.5699,-2.5791,-2.5686,-2.5765,-2.5768,-2.5759,-2.5978,-2.6018,-2.618,-2.5903,-2.5907,-2.591,0,-2.5421,-2.5464,-2.5609,-2.563,-2.5657,-2.5722,-2.577,-2.5823,-2.5852,-2.5848,-2.5881,-2.585,-2.5932,-2.5849,-2.5961,-2.589,-2.592,-2.5926,-2.5932,-2.594,-2.5849,-2.5993,-2.6231,-2.6256,-2.5944,-2.5942,-2.5939,0,-2.5581,-2.5676,-2.5775,-2.5795,-2.5822,-2.5869,-2.5882,-2.5907,-2.5941,-2.5983,-2.6005,-2.6056,-2.6085,-2.6124,-2.6108,-2.6049,-2.6222,-2.6139,-2.6221,-2.6222,-2.6262,-2.626,-2.651,-2.628,-2.6279,-2.6279,-2.6278,0,-2.5778,-2.5869,-2.5847,-2.5908,-2.6008,-2.598,-2.6079,-2.6086,-2.6108,-2.6168,-2.6123,-2.6181,-2.6154,-2.621,-2.6197,-2.6291,-2.6304,-2.6303,-2.6298,-2.6308,-2.6308,-2.6329,-2.6317,-2.6285,-2.6284,-2.6282,-2.6281,0,-2.5976,-2.5965,-2.6068,-2.6085,-2.6091,-2.6164,-2.6177,-2.6234,-2.6229,-2.6306,-2.6323,-2.6317,-2.638,-2.6366,-2.6435,-2.6426,-2.6544,-2.6525,-2.6535,-2.6531,-2.6614,-2.6607,-2.6887,-2.6922,-2.6669,-2.6671,-2.6673,0,-2.6103,-2.6171,-2.6194,-2.6232,-2.6248,-2.6309,-2.6343,-2.6318,-2.6356,-2.6393,-2.6445,-2.6503,-2.6549,-2.6652,-2.6653,-2.6705,-2.6688,-2.6782,-2.6695,-2.6702,-2.669,-2.6687,-2.6693,-2.68,-2.6803,-2.6805,-2.6807,0,-2.633,-2.632,-2.6372,-2.6422,-2.6464,-2.6502,-2.6535,-2.6568,-2.6545,-2.659,-2.6653,-2.6688,-2.6758,-2.6816,-2.6864,-2.6876,-2.6839,-2.6834,-2.6856,-2.6867,-2.687,-2.687,-2.6583,-2.6828,-2.6826,-2.6825,-2.6824,-2.6823,-2.6497,-2.6555,-2.658,-2.6638,-2.666,-2.6692,-2.6745,-2.6747,-2.68,-2.6854,-2.6835,-2.6908,-2.6933,-2.6993,-2.7011,-2.7066,-2.7031,-2.7063,-2.7071,-2.708,-2.709,-2.686,-2.7075,-2.7074,-2.7073,-2.7073,-2.7073,0,-2.6722,-2.6735,-2.6789,-2.6836,-2.6882,-2.6841,-2.6875,-2.6916,-2.698,-2.7006,-2.7052,-2.7124,-2.7179,-2.7184,-2.7236,-2.728,-2.7264,-2.7294,-2.7292,-2.7295,-2.7119,-2.7095,-2.7307,-2.7307,-2.7307,-2.7307,-2.7307,-2.7306,-2.6845,-2.6941,-2.6934,-2.7039,-2.705,-2.7121,-2.7144,-2.7172,-2.7193,-2.7276,-2.7322,-2.7324,-2.7341,-2.7394,-2.7443,-2.7442,-2.7464,-2.7502,-2.7496,-2.7331,-2.7308,-2.7286,-2.7263,-2.7507,-2.7507,-2.7667,-2.7669,-2.767]},{"header":{"parameterUnit":"m.s-1","parameterCategory":1,"la1":30.2991,"la2":30.254,"lo1":-89.0895,"lo2":-89.0444,"dy":0.0017,"dx":0.0017,"nx":28,"ny":28,"refTime":"2024-11-28T03:00:00:Z","depth":0,"parameterNumber":3,"parameterNumberName":"V-component_of_WINDS"},"data":[0,0,0,0,0,0,0,0,0,0,0,0,0,0,0,0,0,0,0,0,0,0,0,0,0,0,0,0,0,0,0,0,0,0,0,0,0,0,0,0,0,0,0,0,0,0,0,0,0,0,0,0,0,0,0,0,0,0,-6.9006,-6.9007,0,-6.9157,-6.9159,-6.9161,-6.907,-6.9066,-6.9061,-6.9057,-6.9207,-6.9215,-6.9223,0,0,0,0,0,0,0,0,0,0,0,0,0,-6.863,-6.8638,-6.9005,-6.9007,-6.9009,-6.9157,-6.9159,-6.9161,-6.9071,-6.9065,-6.906,-6.9055,-6.9204,-6.9214,-6.9223,0,0,0,0,0,0,0,0,0,0,0,0,0,-6.8789,-6.864,-6.9005,-6.8982,-6.8981,-6.9157,-6.9159,-6.9162,-6.9072,-6.9065,-6.9059,-6.9053,-6.9201,-6.9213,-6.9225,-6.9429,0,0,-6.9261,-6.9267,0,0,0,0,0,0,0,0,-6.878,-6.8802,-6.8984,-6.8984,-6.8984,-6.9088,-6.9082,-6.9251,-6.9073,-6.9037,-6.9057,-6.905,-6.9172,-6.9186,-6.9229,-6.9436,-6.9443,-6.9263,-6.927,-6.9275,-6.9278,0,0,0,0,0,0,0,-6.8769,-6.8795,-6.9065,-6.8986,-6.8986,-6.8962,-6.8977,-6.9113,-6.9139,-6.904,-6.9034,-6.9053,-6.9171,-6.9217,-6.9232,-6.9445,-6.9262,-6.9273,-6.928,-6.9285,-6.9825,-6.9832,0,0,0,0,0,0,-6.876,-6.8787,-6.906,-6.907,-6.8864,-6.8974,-6.8991,-6.9061,-6.9138,-6.9143,-6.9059,-6.9049,-6.92,-6.9218,-6.9237,-6.948,-6.9275,-6.9286,-6.9293,-6.9818,-6.9827,-6.9834,0,0,0,0,0,0,-6.8753,-6.8786,-6.9054,-6.8927,-6.8959,-6.8987,-6.9067,-6.9068,-6.9114,-6.9152,-6.9155,-6.9102,-6.9196,-6.922,-6.9382,-6.9484,-6.9292,-6.9303,-6.981,-6.9821,-6.9831,-6.997,0,0,0,0,0,0,-6.8742,-6.8784,-6.8864,-6.8929,-6.8966,-6.92,-6.9073,-6.9075,-6.9136,-6.9124,-6.9193,-6.9198,-6.9192,-6.9365,-6.9394,-6.9497,-6.9312,-6.9801,-6.9815,-6.9827,-6.9956,-6.9984,-7.0007,0,0,0,0,0,-6.8729,-6.8896,-6.8868,-6.8902,-6.9067,-6.9206,-6.9227,-6.9218,-6.9144,-6.9224,-6.9247,-6.9196,-6.9468,-6.9382,-6.9414,-6.9523,-6.9794,-6.9811,-6.9826,-6.9944,-6.9978,-7.0007,0,0,0,0,0,0,-6.8839,-6.8904,-6.8874,-6.9067,-6.9132,-6.919,-6.929,-6.9254,-6.934,-6.9325,-6.9309,-6.9325,-6.9494,-6.9524,-6.9427,-6.9723,-6.9619,-6.9642,-6.9698,-6.973,-6.9756,-6.9745,-6.9322,0,0,0,0,0,-6.8887,-6.8996,-6.9045,-6.9211,-6.9245,-6.9263,-6.9323,-6.931,-6.9376,-6.9402,-6.9438,-6.9502,-6.9601,-6.9667,-6.9761,-6.9959,-6.9972,-7.005,-7.0075,-7.0096,-7.0116,-7.0222,-7.0256,-6.9887,-6.9887,-6.9887,0,0,-6.8984,-6.9033,-6.9103,-6.9234,-6.9283,-6.9395,-6.9286,-6.9409,-6.9491,-6.942,-6.9576,-6.9605,-6.9674,-6.9856,-6.9937,-6.9886,-7.0221,-7.0117,-7.0133,-7.0142,-7.0242,-7.0277,-7.0308,-6.9898,-6.9896,-6.9894,0,0,-6.922,-6.9268,-6.9411,-6.9462,-6.9538,-6.9548,-6.9582,-6.9646,-6.9663,-6.9819,-6.9768,-6.9864,-7.0036,-7.0088,-7.0137,-7.039,-7.0345,-7.042,-7.0555,-7.0657,-7.0687,-7.0712,-7.0801,-7.0834,-7.044,-7.0441,-7.0441,0,-6.9331,-6.95,-6.9488,-6.9615,-6.9673,-6.9616,-6.9759,-6.9808,-6.991,-6.9951,-6.9892,-7.0106,-7.0149,-7.0341,-7.0403,-7.0444,-7.0481,-7.0413,-7.0684,-7.0709,-7.0733,-7.0818,-7.0851,-7.0449,-7.0448,-7.0448,-7.0447,0,-6.9632,-6.9749,-6.9855,-6.9956,-7.0026,-7.0161,-7.0167,-7.0239,-7.022,-7.0236,-7.0394,-7.0444,-7.0546,-7.059,-7.0573,-7.0779,-7.0745,-7.0686,-7.058,-7.0777,-7.0856,-7.0889,-7.0462,-7.0459,-7.0456,-7.0454,0,0,-6.9942,-7.0035,-7.0074,-7.0119,-7.0197,-7.0286,-7.0416,-7.0518,-7.0579,-7.0651,-7.0758,-7.0905,-7.085,-7.0905,-7.0892,-7.0983,-7.1178,-7.0912,-7.0913,-7.0959,-7.1407,-7.1451,-7.1489,-7.1149,-7.1155,-7.116,-7.1401,0,-7.0182,-7.0412,-7.0405,-7.0618,-7.0725,-7.0671,-7.0784,-7.0843,-7.0861,-7.0952,-7.097,-7.1074,-7.0994,-7.1027,-7.1114,-7.1137,-7.1268,-7.1119,-7.1247,-7.1252,-7.1231,-7.1531,-7.1578,-7.1803,-7.1432,-7.1437,-7.1441,0,-7.0492,-7.0576,-7.0801,-7.0862,-7.0906,-7.1009,-7.11,-7.1189,-7.1253,-7.1259,-7.1321,-7.1293,-7.1423,-7.1314,-7.1491,-7.139,-7.1441,-7.146,-7.1468,-7.1479,-7.1358,-7.1549,-7.1874,-7.1908,-7.149,-7.1486,-7.1482,0,-7.0695,-7.0863,-7.1019,-7.1059,-7.1135,-7.1207,-7.1242,-7.13,-7.1361,-7.144,-7.1479,-7.1572,-7.1622,-7.1693,-7.169,-7.1612,-7.1869,-7.176,-7.1876,-7.1876,-7.1932,-7.1929,-7.227,-7.1967,-7.1966,-7.1966,-7.1965,0,-7.0963,-7.1102,-7.1111,-7.1207,-7.136,-7.1349,-7.1501,-7.1527,-7.158,-7.1678,-7.1636,-7.1728,-7.1719,-7.1811,-7.1809,-7.1955,-7.1978,-7.1985,-7.1983,-7.1989,-7.1988,-7.2022,-7.2006,-7.1974,-7.1972,-7.1971,-7.1969,0,-7.1216,-7.1227,-7.1393,-7.1451,-7.1469,-7.158,-7.1628,-7.1717,-7.1731,-7.1855,-7.1884,-7.1904,-7.2011,-7.2015,-7.2137,-7.2135,-7.2313,-7.2293,-7.2292,-7.2288,-7.2403,-7.2392,-7.2777,-7.2826,-7.2492,-7.2495,-7.2498,0,-7.1386,-7.1492,-7.1562,-7.1625,-7.1665,-7.1768,-7.183,-7.1822,-7.1888,-7.1969,-7.2048,-7.2151,-7.2233,-7.2405,-7.2429,-7.2522,-7.2504,-7.2632,-7.2517,-7.252,-7.2505,-7.2498,-7.2508,-7.2655,-7.2659,-7.2662,-7.2664,0,-7.1687,-7.1687,-7.1779,-7.1874,-7.195,-7.2023,-7.2091,-7.2145,-7.2144,-7.222,-7.233,-7.2393,-7.2518,-7.262,-7.271,-7.2742,-7.2703,-7.27,-7.2731,-7.2739,-7.2733,-7.2737,-7.2352,-7.2691,-7.2689,-7.2687,-7.2685,-7.2684,-7.1903,-7.1994,-7.2057,-7.2161,-7.2211,-7.2276,-7.2363,-7.2387,-7.2479,-7.2581,-7.257,-7.2691,-7.275,-7.2867,-7.2907,-7.3,-7.2955,-7.3001,-7.3012,-7.3024,-7.3036,-7.2719,-7.3016,-7.3015,-7.3014,-7.3014,-7.3013,0,-7.2201,-7.2239,-7.2334,-7.2431,-7.2512,-7.247,-7.2542,-7.2612,-7.272,-7.278,-7.2861,-7.2986,-7.3084,-7.3116,-7.321,-7.3278,-7.3263,-7.3303,-7.3298,-7.3306,-7.3071,-7.3034,-7.3314,-7.3314,-7.3314,-7.3314,-7.3314,-7.3314,-7.2365,-7.2517,-7.2525,-7.27,-7.2735,-7.2856,-7.29,-7.2958,-7.3006,-7.3148,-7.323,-7.325,-7.3298,-7.3395,-7.3483,-7.3489,-7.3525,-7.3574,-7.3573,-7.3353,-7.3322,-7.3294,-7.3259,-7.3582,-7.3582,-7.38,-7.3802,-7.3804]}]]